Regional Weather Roundup
Issued by NWS

Home | Current Version | Previous Version | Text Only | Print | Product List | Glossary Off
Versions: 1 2 3 4 5 6 7 8 9 10 11 12 13 14 15 16 17 18 19 20 21 22 23 24 25 26 27 28 29 30 31 32 33 34 35 36 37 38 39 40 41 42 43 44 45 46 47 48 49 50

000
ASUS43 KLSX 151407
RWRMO

WEATHER SUMMARY FOR MISSOURI
NATIONAL WEATHER SERVICE SPRINGFIELD MO
800 AM CST FRI DEC 15 2017

NOTE: "FAIR" INDICATES FEW OR NO CLOUDS BELOW 12,000 FEET WITH NO
       SIGNIFICANT WEATHER AND/OR OBSTRUCTIONS TO VISIBILITY.
       CURRENT SKY AND/OR WEATHER CONDITIONS ARE NOT AVAILABLE FOR
       CHILLICOTHE AND FARMINGTON.

MOZ001>031-035>038-043-044-053-054-151500-
...NORTHERN AND WESTERN MISSOURI...

CITY           SKY/WX    TMP DP  RH WIND       PRES   REMARKS
KANSAS CTY INT PTCLDY    30  26  85 SW5       30.13S WCI  25
KANSAS C DTWN  CLEAR     32  27  81 SW7       30.14F WCI  26
LEE`S SUMMIT   CLEAR     31  28  89 W6        30.14S WCI  25
ST JOSEPH      MOCLDY    27  23  85 SW7       30.14R WCI  19
CHILLICOTHE      N/A     30  22  72 SW5       30.13S WCI  25
KIRKSVILLE     CLEAR     30  24  78 W6        30.08S WCI  24

$$
MOZ066>068-077>081-088>096-101>105-151500-
...SOUTHWEST MISSOURI...

CITY           SKY/WX    TMP DP  RH WIND       PRES   REMARKS
SPRINGFIELD    PTCLDY    33  27  78 W6        30.14R WCI  28
JOPLIN         CLEAR     31  31 100 CALM      30.20R
BRANSON        PTCLDY    32  27  80 CALM      30.17R

$$
MOZ032>034-039>042-045>050-055>058-069>072-151500-
...CENTRAL MISSOURI...

CITY           SKY/WX    TMP DP  RH WIND       PRES   REMARKS
COLUMBIA       CLOUDY    33  25  72 W8        30.10S WCI  26
JEFFERSON CITY CLOUDY    32  25  75 CALM      30.13S
ROLLA          CLOUDY    30  24  78 SW7       30.10F WCI  23
SEDALIA        CLEAR     33  28  81 W7        30.14S WCI  27
WHITEMAN AFB   CLEAR     30  26  83 W5        30.10S WCI  26
WARRENSBURG    MOCLDY    30  28  93 CALM      30.15S
OSAGE BEACH    CLEAR     31  26  82 W3        30.14

$$
MOZ051-052-059>065-151500-
...EAST CENTRAL MISSOURI...

CITY           SKY/WX    TMP DP  RH WIND       PRES   REMARKS
ST LOUIS INTL  MOCLDY    32  24  72 SW7       30.09F WCI  26
SPIRIT OF STL  CLOUDY    32  24  72 SW7       30.10F WCI  26
ST CHARLES     CLOUDY    32  23  69 W6        30.09F WCI  26

$$
MOZ072>076-082>087-097>100-106>115-151500-
...SOUTH CENTRAL AND SOUTHEAST MISSOURI...

CITY           SKY/WX    TMP DP  RH WIND       PRES   REMARKS
CAPE GIRARDEAU CLEAR     28  21  75 SW5       30.18R WCI  23
FARMINGTON     CLEAR     27  21  78 S6        30.11F WCI  20
POPLAR BLUFF   PTCLDY    31  26  82 SW6       30.19R HAZE    WCI  25
WEST PLAINS    CLOUDY    30  24  78 SW3       30.14S

$$



USA.gov is the U.S. government's official web portal to all federal, state and local government web resources and services.